www.pogodaiklimat.ru

Погода и климат >> Архив погоды >> Парагвай >> Парагуари


ПОГОДА в Парагуари

  • Прогноз погоды в Парагуари
  • Монитор погоды в Парагуари

АРХИВ ПОГОДЫ в Парагуари

Время (UTC), дата Ветер
(напр.,м/с)
 
Видим.   Явления Облачность Т
(С)
Тd
(С)
f
(%)
Тe
(С)
Тes
(С)
Комфортность P
(гПа)
Po
(гПа)
Тmin
(С)
Tmax
(С)
R
(мм)
R24
(мм)
S
(см)
21 11.07 С 1 20 км ясно +28.2 +14.8 44 +31 +31 душно 1012.1 998.9
00 12.07 С 2 20 км ясно +26.2 +15.8 53 +29 +29 жарко 1011.0 997.7 +30.4
03 12.07 С 3 20 км ясно +23.8 +15.7 60 +27 +27 жарко 1011.0 997.6
06 12.07 С 2 20 км ясно +22.4 +14.7 62 +26 +26 жарко 1011.5 998.0
09 12.07 штиль 0 20 км 8/0 1500 м
[Ac und]
+18.8 +15.5 81 +20 +20 1012.9 999.3
12 12.07 С 6 20 км 8/0 1500 м
[Ac und]
+22.8 +10.8 47 +25 +25 комфорт 1012.9 999.5 +18.8
15 12.07 С 5 20 км 8/0 1500 м
[Ac und]
+26.8 +13.5 44 +29 +31 жарко 1012.3 999.0
18 12.07 С 3 20 км ясно +30.2 +13.1 35 +31 +37 жарко 1011.8 998.7
21 12.07 С 2 20 км ясно +28.0 +14.8 44 +30 +30 жарко 1011.1 997.9
00 13.07 штиль 0 20 км ясно +25.4 +15.0 53 +28 +28 жарко 1010.6 997.3 +30.2
03 13.07 штиль 0 20 км ясно +24.2 +15.3 58 +27 +27 жарко 1011.0 997.6
12 13.07 штиль 0 20 км 8/0 1500 м
[Ac und]
+21.8 +15.1 66 +25 +26 комфорт 1012.4 998.9 +18.8
15 13.07 штиль 0 20 км ясно +26.6 +14.9 49 +29 +42 жарко 1011.9 998.6
18 13.07 С 3 20 км ясно +29.6 +13.2 37 +31 +36 жарко 1010.8 997.7
21 13.07 штиль 0 20 км ясно +27.8 +14.9 45 +30 +30 жарко 1010.5 997.3
00 14.07 штиль 0 20 км 8/0 1500 м
[Ac und]
+25.8 +16.5 56 +29 +29 душно 1011.2 997.9 +30.0
03 14.07 штиль 0 20 км 10/0 1500 м
[Ac As]
+22.6 +18.7 79 +28 +28 душно 1012.2 998.8
06 14.07 штиль 0 20 км 10/0 1500 м
[Ac As]
+20.8 +19.3 91 +25 +25 комфорт 1013.1 999.5
09 14.07 штиль 0 20 км 10/0 1500 м
[Ac As]
+18.8 +17.5 92 +20 +20 1013.9 1000.2
12 14.07 штиль 0 20 км {дождь} 10/10 300 м
[Sc]
+18.2 +17.9 98 +19 +19 1014.3 1000.6 +18.2 4
15 14.07 штиль 0 20 км 10/10 300 м
[Sc]
+18.2 +17.9 98 +19 +19 1014.5 1000.8
18 14.07 штиль 0 20 км ясно +24.8 +17.3 63 +29 +38 душно 1013.5 1000.1
21 14.07 ЮВ 1 20 км 10/10 300 м
[Sc]
+21.8 +17.5 77 +26 +26 душно 1013.4 999.9
00 15.07 штиль 0 20 км {дождь} 10/10 300 м
[Sc]
+20.2 +16.7 80 +23 +23 комфорт 1013.9 1000.3 +25.8 3
03 15.07 штиль 0 20 км 10/10 300 м
[Sc]
+19.6 +18.9 96 +22 +22 комфорт 1014.0 1000.4
06 15.07 штиль 0 20 км 10/10 300 м
[Sc]
+18.2 +17.9 98 +19 +19 1014.5 1000.8
09 15.07 штиль 0 20 км 10/10 240 м
[Sc]
+17.4 +16.9 97 +17 +17 1015.6 1001.8
12 15.07 штиль 0 4000 м дымка 10/10 180 м
[St]
+16.4 +15.8 96 +16 +16 1016.4 1002.6 +16.4 3
15 15.07 Ю 1 20 км 10/10 180 м
[St]
+16.2 +15.8 97 +17 +17 1017.0 1003.2
18 15.07 Ю 3 20 км ясно +21.8 +13.6 60 +25 +30 комфорт 1013.5 1003.1
21 15.07 Ю 3 20 км ясно +19.4 +11.6 61 +21 +21 комфорт 1017.1 1003.4
00 16.07 штиль 0 20 км {дождь} 10/10 300 м
[Sc]
+20.2 +16.7 80 +23 +23 комфорт 1013.9 1000.3 +25.8 3
03 16.07 Ю 2 20 км ясно +17.2 +11.1 67 +18 +18 1018.5 1004.7
06 16.07 ЮВ 2 20 км ясно +14.8 +13.8 94 +14 +14 1019.9 1005.9
12 16.07 штиль 0 20 км ясно +10.6 +9.0 90 +10 +13 1022.6 1008.5 +7.8
15 16.07 ЮВ 2 20 км 5/0 2000 м
[Ci]
+18.0 +12.6 71 +19 +27 1022.5 1008.7
18 16.07 штиль 0 20 км 5/0 2000 м
[Ci]
+22.0 +8.5 42 +23 +29 комфорт 1019.5 1006.0
21 16.07 штиль 0 20 км 6/0 2000 м
[Ci]
+17.0 +6.9 51 +17 +17 1021.1 1005.8
00 17.07 штиль 0 20 км ясно +12.6 +4.7 59 +12 +12 1021.0 1007.0 +22.0
03 17.07 штиль 0 20 км 5/0 2000 м
[Ci]
+10.0 +5.6 74 +9 +9 1021.8 1007.6
09 17.07 штиль 0 20 км ясно +9.0 +6.8 86 +8 +8 1022.3 1008.0
12 17.07 штиль 0 20 км ясно +9.0 +7.3 89 +8 +11 1022.7 1008.4 +5.0
15 17.07 штиль 0 20 км ясно +16.2 +7.8 57 +16 +30 опасность
простуды
1022.9 1009.0
18 17.07 В 2 20 км 4/0
[Ci]
+23.4 +7.3 36 +24 +30 комфорт 1020.5 1007.0
21 17.07 штиль 0 20 км 4/0
[Ci]
+21.0 +9.9 49 +22 +22 комфорт 1019.7 1006.0
00 18.07 В 2 20 км 4/0
[Ci]
+16.0 +10.3 69 +16 +16 1020.5 1006.6 +24.0
03 18.07 В 2 20 км 4/0
[Ci]
+14.2 +12.0 87 +14 +14 1021.0 1007.0
06 18.07 СВ 3 20 км 6/0 1500 м
[Ac und]
+16.0 +10.3 69 +16 +16 1019.3 1005.4
09 18.07 СВ 3 20 км 8/0 1500 м
[Ac As]
+16.6 +9.7 64 +16 +16 1017.8 1004.0
12 18.07 СВ 4 20 км 10/0 1000 м
[Ac As]
+19.0 +9.5 54 +20 +20 1018.8 1005.0 +9.0
15 18.07 СВ 3 20 км 6/0 1500 м
[Ac und]
+19.6 +11.2 58 +21 +26 комфорт 1019.3 1005.6
18 18.07 В 5 20 км 9/3 1000 м
[Cu Sc Ac und]
+22.6 +10.8 47 +25 +26 комфорт 1017.5 1004.0

 

Местоположение метеостанции Парагуари (Парагвай): широта -25.63 долгота -57.13 высота над уровнем моря 116 м.

В архиве по умолчанию представлена погода в Парагуари за последнюю неделю. Архивные данные за месяц целиком и за предыдущие месяцы, начиная с января 2011 года, Вы можете получить, выбрав интересующий диапазон дат из раскрывающегося списка и нажав кнопку "Ввод!".


*Определитесь, кто Вы:
робот инопланетянин человек

Внимание! Время в таблицах - всемирное. Для получения местного времени необходимо прибавить поправку, которая равна -4 ч.

Смотрите также архив погоды в соседних городах и на ближайших метеорологических станциях:

Погода в Асунсьоне (Парагвай) (57 км)
Погода в Куйкуйо (Парагвай) (67 км)
Погода в Вильяррике (Парагвай) (71 км)
Погода в Коронель-Овьедо (Парагвай) (80 км)
Погода в Каасапе (Парагвай) (99 км)
Погода в Сан Хуан Батистута (Парагвай) (115 км)
Погода в Формосе (Аргентина) (127 км)
Погода в Сан Эстанислао (Парагвай) (130 км)
Погода в Сан-Педро (Парагвай) (175 км)
Погода в Пиларе (Парагвай) (180 км)

Пояснения к столбцам:

Ветер - указаны скорость ветра в м/с - средняя за 10 мин, порывы в срок и между сроками (в фигурных скобках) и направление, откуда дует ветер: С - северный, СВ - северо-восточный, В - восточный, ЮВ - юго-восточный, Ю - южный, ЮЗ - юго-западный, З - западный, СЗ - северо-западный.
Видимость - горизонтальная дальность видимости в метрах или километрах. При видимости от 1 до 10 км при отсутствии осадков обычно наблюдается дымка, при ухудшении видимости до 1 км и менее - туман. В сухую погоду видимость может ухудшаться дымом, пылью или мглою.
Явления - указаны атмосферные явления, наблюдавшиеся в срок или в последний час перед сроком; фигурными скобками обозначены явления, наблюдавшиеся между сроками (за 1-3 часа до срока); квадратными скобками обозначены град или гололедные отложения с указанием их диаметра в мм.
Облачность - указаны через наклонную черту общая и нижняя облачность в баллах и высота нижней границы облаков в метрах; квадратными скобками обозначены формы облаков: Ci - перистые, Cs - перисто-слоистые, Cc - перисто-кучевые, Ac - высококучевые, As - высокослоистые, Sc - слоисто-кучевые, Ns - слоисто-дождевые, Cu - кучевые, Cb - кучево-дождевые. Подробнее классификацию облаков см. в Атласе облаков (PDF).
T - Температура воздуха - температура, измеренная на высоте 2 м над землей.
Td - Температура точки росы - температура, при понижении до которой содержащийся в воздухе водяной пар достигнет насыщения.
f - Относительная влажность воздуха - влажноcть воздуха, измеренная на высоте 2 м над землей.
Te - Эффективная температура - температура, которую ощущает одетый по сезону человек в тени. Характеристика душности погоды. При расчете учитывается влияние влажности воздуха и скорости ветра на теплоощущения человека.
Tes - Эффективная температура на солнце - температура, которую ощущает человек, с поправкой на солнечный нагрев. Характеристика знойности погоды. Зависит от высоты солнца над горизонтом, облачности и скорости ветра. Ночью, в пасмурную погоду, а также при ветре 12 м/с и более поправка равна нулю.
P - Атмосферное давление - приведенное к уровню моря атмосферное давление.
Po - Атмосферное давление - измеренное на уровне метеостанции атмосферное давление.
Tmin - Минимальная температура - минимум температуры воздуха на высоте 2 м над землей.
Tmax - Максимальная температура - максимум температуры воздуха на высоте 2 м над землей.
R - Количество осадков - Количество выпавших осадков за период времени, мм. При наведении курсора мыши на число - период времени, за который выпало указанное количество осадков.
R24 - Количество осадков - Количество выпавших осадков за 24 часа, мм.
S - Снежный покров - Высота снежного покрова, см. При наведении курсора мыши на число - состояние снежного покрова и степень покрытия местности в баллах.